User: anonymous   Login
Location: Geroldsau
(48.7259°N, 8.2466°E)
Time: 18:31:17
(UTC+00:00)
Language:

CZ-4C R/B - Orbit

View from above orbital plane
View from above orbital plane
View from above satellite
View from above satellite

Ground track
Ground track

The orbit data is extracted from the following two-line orbital elements,

1 39211U 13037D   21267.69669108  .00001302  00000-0  79372-4 0  9991
2 39211  98.0378  60.8005 0123792  80.5698 280.9497 15.06143627449003
Epoch (UTC): 24 September 2021 16:43:14
Eccentricity: 0.0123792
inclination: 98.0378°
perigee height: 462 km
apogee height: 634 km
right ascension of ascending node: 60.8005°
argument of perigee: 80.5698°
revolutions per day: 15.06143627
mean anomaly at epoch: 280.9497°
orbit number at epoch: 44900

The dashed part of the orbit path shows where the satellite is in the earth's shadow,  

DLR